This demonstration page uses our WeatherBlox Daily Observations layout. Learn more.

38.89511, -77.03637

Hourly Observations for December 6, 2019

Temp ( °F °C ) Dew Point ( °F °C ) Humidity (%) Winds ( mph kmh ) Pressure ( in mb ) Visibility ( mi km ) Precip ( " mm )
12:52 am 00:52 Cloudy 39 3.9 29 -1.7 67 67 SSW 5 7 30.18 1022 10 16.09344 0 0
1:52 am 01:52 Cloudy 39 3.9 31 -0.6 73 73 S 6 9 30.18 1022 10 16.09344 0 0
2:52 am 02:52 Cloudy 38 3.3 29 -1.7 70 70 SSW 6 9 30.18 1022 10 16.09344 0 0
3:52 am 03:52 Partly Cloudy 37 2.8 30 -1.1 76 76 SSW 7 11 30.15 1021 10 16.09344 0 0
4:52 am 04:52 Mostly Cloudy 38 3.3 29 -1.7 70 70 SW 3 6 30.15 1021 10 16.09344 0 0
5:52 am 05:52 Mostly Clear 36 2.2 29 -1.7 76 76 S 7 11 30.15 1021 10 16.09344 0 0
6:52 am 06:52 Mostly Clear 36 2.2 30 -1.1 79 79 SSW 6 9 30.15 1021 10 16.09344 0 0
7:52 am 07:52 Partly Cloudy 37 2.8 31 -0.6 79 79 S 6 9 30.15 1021 10 16.09344 0 0
8:52 am 08:52 Mostly Cloudy 40 4.4 33 0.6 77 77 S 9 15 30.15 1021 10 16.09344 0 0
9:52 am 09:52 Mostly Cloudy 45 7.2 36 2.2 71 71 S 9 15 30.15 1021 10 16.09344 0 0
10:52 am 10:52 Cloudy 47 8.3 30 -1.1 52 52 S 10 17 30.12 1020 10 16.09344 0 0
11:52 am 11:52 Cloudy 49 9.4 27 -2.8 43 43 SSW 12 19 30.09 1019 10 16.09344 0 0
12:52 pm 12:52 Cloudy 50 10 28 -2.2 43 43 SSW 10 17 30.06 1018 10 16.09344 0 0
1:52 pm 13:52 Cloudy 51 10.6 29 -1.7 43 43 SSW 9 15 30.03 1017 10 16.09344 0 0
2:52 pm 14:52 Cloudy 52 11.1 29 -1.7 41 41 SSW 10 17 30.03 1017 10 16.09344 0 0
3:52 pm 15:52 Cloudy 52 11.1 31 -0.6 45 45 SW 9 15 30.03 1017 10 16.09344 0 0
4:52 pm 16:52 Cloudy 51 10.6 31 -0.6 46 46 SSW 5 7 30.03 1017 10 16.09344 0 0
5:52 pm 17:52 Mostly Cloudy 51 10.6 31 -0.6 46 46 SW 6 9 30.03 1017 10 16.09344 0 0
6:52 pm 18:52 Cloudy 49 9.4 34 1.1 56 56 NNE 6 9 30.06 1018 10 16.09344 0 0
7:52 pm 19:52 Cloudy 53 11.7 31 -0.6 43 43 WNW 7 11 30.09 1019 10 16.09344 0 0
8:52 pm 20:52 Cloudy 53 11.7 37 2.8 55 55 NW 12 19 30.12 1020 10 16.09344 0 0
9:52 pm 21:52 Partly Cloudy 52 11.1 39 3.9 61 61 NW 8 13 30.12 1020 10 16.09344 0 0
10:52 pm 22:52 Cloudy 51 10.6 38 3.3 61 61 NNW 22 35 30.15 1021 10 16.09344 0 0
11:52 pm 23:52 Cloudy 48 8.9 33 0.6 56 56 N 14 22 30.18 1022 10 16.09344 0 0

Powered by AerisWeather